AUI3155 EPWA-UKOO

Flight info

Callsign AUI3155
Flight time N/A
Altitude 37000
Route XIMBA DCT OMAVA DCT BALBA DCT ROLKA/K0846F370 DCT NOLDU P156 ODSAN
Aircraft B738/M-SDE2E3FGHIRWXY/LB1

Departure

Time 2026-05-05 14:23
Airport Warsaw Chopin Airport (EPWA)

Arrival

Time N/A
Airport Odesa International Airport (UKOO)
Time Latitude Longitude Altitude Speed Heading
2026-05-05 14:08 52.17209 20.96961 353 ft 0 kts 62°
2026-05-05 14:09 52.17205 20.96950 353 ft 2 kts 62°
2026-05-05 14:09 52.17198 20.96928 353 ft 2 kts 62°
2026-05-05 14:10 52.17191 20.96907 353 ft 2 kts 62°
2026-05-05 14:10 52.17184 20.96886 353 ft 2 kts 62°
2026-05-05 14:10 52.17178 20.96864 353 ft 1 kts 62°
2026-05-05 14:10 52.17173 20.96851 353 ft 1 kts 45°
2026-05-05 14:11 52.17160 20.96843 353 ft 2 kts 351°
2026-05-05 14:11 52.17152 20.96848 353 ft 1 kts 322°
2026-05-05 14:11 52.17149 20.96852 353 ft 0 kts 329°
2026-05-05 14:13 52.17164 20.96837 353 ft 5 kts 329°
2026-05-05 14:13 52.17210 20.96792 353 ft 10 kts 329°
2026-05-05 14:13 52.17287 20.96730 353 ft 14 kts 333°
2026-05-05 14:13 52.17378 20.96645 354 ft 14 kts 332°
2026-05-05 14:14 52.17445 20.96589 354 ft 7 kts 328°
2026-05-05 14:14 52.17467 20.96526 354 ft 5 kts 267°
2026-05-05 14:14 52.17457 20.96477 354 ft 4 kts 244°
2026-05-05 14:14 52.17439 20.96413 354 ft 8 kts 257°
2026-05-05 14:15 52.17464 20.96332 354 ft 9 kts 328°
2026-05-05 14:15 52.17535 20.96272 355 ft 13 kts 331°
2026-05-05 14:15 52.17627 20.96190 356 ft 16 kts 332°
2026-05-05 14:15 52.17724 20.96107 356 ft 13 kts 332°
2026-05-05 14:16 52.17752 20.96082 356 ft 0 kts 332°
2026-05-05 14:16 52.17757 20.96077 356 ft 3 kts 329°
2026-05-05 14:16 52.17795 20.96032 356 ft 10 kts 313°
2026-05-05 14:16 52.17844 20.95908 357 ft 14 kts 306°
2026-05-05 14:17 52.17891 20.95784 358 ft 10 kts 297°
2026-05-05 14:17 52.17891 20.95727 359 ft 2 kts 251°
2026-05-05 14:17 52.17875 20.95667 359 ft 8 kts 239°
2026-05-05 14:17 52.17823 20.95553 360 ft 13 kts 218°
2026-05-05 14:18 52.17765 20.95487 360 ft 0 kts 217°
2026-05-05 14:19 52.17765 20.95488 360 ft 0 kts 216°
2026-05-05 14:19 52.17768 20.95491 360 ft 0 kts 210°
2026-05-05 14:19 52.17770 20.95493 360 ft 0 kts 208°
2026-05-05 14:19 52.17774 20.95496 360 ft 0 kts 207°
2026-05-05 14:20 52.17777 20.95499 360 ft 0 kts 207°
2026-05-05 14:20 52.17772 20.95497 360 ft 1 kts 186°
2026-05-05 14:21 52.17761 20.95506 360 ft 0 kts 120°
2026-05-05 14:21 52.17751 20.95575 360 ft 16 kts 82°
2026-05-05 14:21 52.17722 20.95719 359 ft 5 kts 152°
2026-05-05 14:21 52.17720 20.95721 359 ft 0 kts 152°
2026-05-05 14:22 52.17712 20.95728 359 ft 15 kts 152°
2026-05-05 14:22 52.17380 20.96003 357 ft 90 kts 152°
2026-05-05 14:22 52.16618 20.96666 353 ft 154 kts 153°
2026-05-05 14:23 52.15593 20.97618 673 ft 180 kts 147°
2026-05-05 14:23 52.14675 20.98918 1547 ft 180 kts 131°
2026-05-05 14:23 52.13927 21.00797 1899 ft 211 kts 116°
2026-05-05 14:23 52.13362 21.03048 2506 ft 230 kts 113°
2026-05-05 14:24 52.12532 21.05422 3167 ft 246 kts 136°
2026-05-05 14:24 52.11248 21.06650 4840 ft 205 kts 171°
2026-05-05 14:24 52.09840 21.06719 5312 ft 228 kts 193°
2026-05-05 14:24 52.08320 21.05563 5547 ft 258 kts 222°
2026-05-05 14:25 52.06947 21.03520 6144 ft 276 kts 216°
2026-05-05 14:25 52.05316 21.02075 7273 ft 273 kts 200°
2026-05-05 14:25 52.03388 21.01448 7860 ft 291 kts 183°
2026-05-05 14:25 52.01414 21.01810 8972 ft 288 kts 165°
2026-05-05 14:26 51.99670 21.03273 9938 ft 292 kts 141°
2026-05-05 14:26 51.98405 21.05982 10225 ft 319 kts 120°
2026-05-05 14:26 51.97248 21.09209 10454 ft 343 kts 127°
2026-05-05 14:26 51.95723 21.12211 11052 ft 351 kts 136°
2026-05-05 14:27 51.93875 21.14859 11770 ft 355 kts 144°
2026-05-05 14:27 51.91871 21.17186 12506 ft 359 kts 148°
2026-05-05 14:27 51.89794 21.19363 13223 ft 362 kts 149°
2026-05-05 14:27 51.87624 21.21539 13924 ft 366 kts 150°
2026-05-05 14:28 51.85466 21.23661 14590 ft 370 kts 150°
2026-05-05 14:28 51.83241 21.25827 15243 ft 374 kts 150°
2026-05-05 14:28 51.81012 21.27984 15871 ft 378 kts 151°
2026-05-05 14:28 51.78749 21.30165 16477 ft 382 kts 151°
2026-05-05 14:29 51.76475 21.32352 17066 ft 386 kts 151°
2026-05-05 14:29 51.74152 21.34582 17640 ft 389 kts 151°
2026-05-05 14:29 51.71831 21.36806 18190 ft 393 kts 151°
2026-05-05 14:29 51.69470 21.39079 18735 ft 397 kts 150°
2026-05-05 14:30 51.67211 21.41598 19241 ft 402 kts 143°
2026-05-05 14:30 51.65119 21.44657 19753 ft 407 kts 134°
2026-05-05 14:30 51.63336 21.48182 20252 ft 412 kts 127°
2026-05-05 14:30 51.61676 21.51977 20737 ft 416 kts 126°
2026-05-05 14:31 51.60050 21.55774 21193 ft 419 kts 126°
2026-05-05 14:31 51.58384 21.59669 21653 ft 422 kts 125°
2026-05-05 14:31 51.56714 21.63567 22099 ft 425 kts 125°
2026-05-05 14:31 51.55042 21.67468 22537 ft 428 kts 126°
2026-05-05 14:32 51.53348 21.71416 22948 ft 431 kts 126°
2026-05-05 14:32 51.51645 21.75378 23359 ft 434 kts 126°
2026-05-05 14:32 51.49911 21.79407 23766 ft 437 kts 126°
2026-05-05 14:32 51.48186 21.83405 24152 ft 440 kts 126°
2026-05-05 14:33 51.46445 21.87438 24531 ft 443 kts 126°
2026-05-05 14:33 51.44684 21.91508 24909 ft 445 kts 126°
2026-05-05 14:33 51.42910 21.95602 25266 ft 448 kts 126°
2026-05-05 14:33 51.41082 21.99607 25623 ft 450 kts 130°
2026-05-05 14:34 51.39090 22.03439 25971 ft 452 kts 131°
2026-05-05 14:34 51.37031 22.07284 26314 ft 455 kts 131°
2026-05-05 14:34 51.34971 22.11128 26650 ft 457 kts 131°
2026-05-05 14:34 51.32914 22.14966 26960 ft 460 kts 131°
2026-05-05 14:35 51.30816 22.18880 27287 ft 462 kts 131°
2026-05-05 14:35 51.28747 22.22737 27597 ft 464 kts 131°
2026-05-05 14:35 51.26635 22.26671 27891 ft 467 kts 131°
2026-05-05 14:35 51.24517 22.30610 28200 ft 469 kts 131°
2026-05-05 14:36 51.22398 22.34548 28494 ft 471 kts 131°
2026-05-05 14:36 51.20266 22.38505 28777 ft 473 kts 131°
2026-05-05 14:36 51.18100 22.42521 29056 ft 475 kts 131°
2026-05-05 14:36 51.15953 22.46494 29323 ft 477 kts 131°
2026-05-05 14:37 51.13799 22.50474 29595 ft 479 kts 131°
2026-05-05 14:37 51.11617 22.54500 29924 ft 479 kts 131°
2026-05-05 14:37 51.09426 22.58537 30276 ft 479 kts 131°
2026-05-05 14:37 51.07268 22.62506 30624 ft 478 kts 131°
2026-05-05 14:38 51.05077 22.66532 30975 ft 478 kts 131°
2026-05-05 14:38 51.02903 22.70521 31300 ft 477 kts 131°
2026-05-05 14:38 51.00753 22.74458 31613 ft 477 kts 131°
2026-05-05 14:38 50.98576 22.78436 31908 ft 477 kts 131°
2026-05-05 14:39 50.96406 22.82400 32241 ft 477 kts 131°
2026-05-05 14:39 50.94240 22.86363 32557 ft 476 kts 131°
2026-05-05 14:39 50.92085 22.90303 32916 ft 474 kts 132°
2026-05-05 14:39 50.89943 22.94213 33306 ft 471 kts 132°
2026-05-05 14:40 50.87790 22.98140 33750 ft 467 kts 133°
2026-05-05 14:40 50.85684 23.01963 34225 ft 461 kts 133°
2026-05-05 14:40 50.83575 23.05777 34724 ft 455 kts 134°
2026-05-05 14:40 50.81502 23.09511 34865 ft 458 kts 134°
2026-05-05 14:41 50.77260 23.17136 34857 ft 461 kts 133°
2026-05-05 14:41 50.73071 23.24657 34857 ft 458 kts 134°
2026-05-05 14:42 50.68879 23.32158 34858 ft 457 kts 134°
2026-05-05 14:42 50.64663 23.39683 34858 ft 458 kts 133°
2026-05-05 14:43 50.60451 23.47184 34858 ft 459 kts 133°
2026-05-05 14:43 50.56224 23.54690 34858 ft 458 kts 134°
2026-05-05 14:44 50.52013 23.62140 34858 ft 458 kts 134°
2026-05-05 14:44 50.47745 23.69676 34858 ft 458 kts 134°
2026-05-05 14:45 50.43531 23.77096 34858 ft 459 kts 134°
2026-05-05 14:45 50.39236 23.84562 34857 ft 459 kts 136°
2026-05-05 14:46 50.34793 23.91658 34859 ft 458 kts 137°
2026-05-05 14:46 50.30307 23.98755 34856 ft 458 kts 137°
2026-05-05 14:47 50.25850 24.05804 34858 ft 456 kts 137°
2026-05-05 14:47 50.21383 24.12863 34858 ft 458 kts 137°
2026-05-05 14:48 50.16917 24.19907 34857 ft 457 kts 137°